EW1423 Weather Reports


time (UTC)temp
C
wind
direction
speed
KPH
gust
KPH
rain 1hr
cm
rain 24hr
cm
rain mn
cm
humidity
%
barometer
mb
20260902165308 23 299 0.0 0.0 0.00 0.00 0.00 58 1020.2
20260902164804 23 336 1.6 8.0 0.00 0.00 0.00 57 1020.2
20260902164303 23 256 1.6 3.2 0.00 0.00 0.00 57 1020.2
20260902163803 23 317 1.6 8.0 0.00 0.00 0.00 57 1020.3
20260902163304 23 302 0.0 9.7 0.00 0.00 0.00 56 1020.3
20260902162804 24 262 0.0 4.8 0.00 0.00 0.00 55 1020.3
20260902162307 24 302 0.0 8.0 0.00 0.00 0.00 54 1020.2
20260902161804 25 321 1.6 8.0 0.00 0.00 0.00 53 1020.2
20260902161304 25 293 0.0 1.6 0.00 0.00 0.00 54 1020.2
20260902160803 25 297 0.0 8.0 0.00 0.00 0.00 54 1020.2
20260902160303 25 257 1.6 8.0 0.00 0.00 0.00 53 1020.1
20260902155804 25 264 0.0 14.5 0.00 0.00 0.00 54 1020.1
20260902154803 25 276 0.0 0.0 0.00 0.00 0.00 53 1020.1
20260902154304 25 272 0.0 1.6 0.00 0.00 0.00 55 1020.1
20260902153804 25 238 0.0 1.6 0.00 0.00 0.00 54 1020.1
20260902152307 25 42 1.6 8.0 0.00 0.00 0.00 54 1020.1
20260902150803 25 38 0.0 8.0 0.00 0.00 0.00 52 1020.2
20260902150304 26 302 0.0 1.6 0.00 0.00 0.00 52 1020.2
20260902145803 26 316 0.0 9.7 0.00 0.00 0.00 53 1020.2
20260902145305 26 281 1.6 8.0 0.00 0.00 0.00 52 1020.2
20260902144803 26 298 0.0 3.2 0.00 0.00 0.00 51 1020.2
20260902144304 26 266 1.6 8.0 0.00 0.00 0.00 51 1020.2
20260902143804 27 317 3.2 12.9 0.00 0.00 0.00 50 1020.3
20260902143303 27 3 1.6 4.8 0.00 0.00 0.00 48 1020.3
20260902142306 27 315 0.0 8.0 0.00 0.00 0.00 51 1020.3
20260902141804 27 282 1.6 9.7 0.00 0.00 0.00 49 1020.3
20260902141304 27 287 1.6 8.0 0.00 0.00 0.00 49 1020.3
20260902140804 27 357 1.6 12.9 0.00 0.00 0.00 50 1020.3
20260902140304 27 329 0.0 4.8 0.00 0.00 0.00 50 1020.3
20260902135803 27 288 0.0 3.2 0.00 0.00 0.00 51 1020.3
20260902135306 26 210 1.6 8.0 0.00 0.00 0.00 52 1020.3
20260902134804 26 320 1.6 9.7 0.00 0.00 0.00 53 1020.3
20260902134303 26 298 3.2 11.3 0.00 0.00 0.00 52 1020.3
20260902133803 26 281 0.0 4.8 0.00 0.00 0.00 53 1020.3
20260902133304 26 324 0.0 4.8 0.00 0.00 0.00 52 1020.2
20260902132803 27 336 0.0 4.8 0.00 0.00 0.00 51 1020.2
20260902132306 27 10 0.0 8.0 0.00 0.00 0.00 48 1020.2
20260902131804 27 24 0.0 0.0 0.00 0.00 0.00 50 1020.2
20260902131303 27 0 0.0 3.2 0.00 0.00 0.00 50 1020.3
20260902125804 27 316 1.6 4.8 0.00 0.00 0.00 50 1020.5
20260902125305 26 58 1.6 9.7 0.00 0.00 0.00 50 1020.5
20260902124804 26 275 0.0 3.2 0.00 0.00 0.00 52 1020.5
20260902123803 26 32 1.6 4.8 0.00 0.00 0.00 52 1020.5
20260902123304 26 278 3.2 8.0 0.00 0.00 0.00 52 1020.7
20260902122803 26 345 0.0 3.2 0.00 0.00 0.00 51 1020.7
20260902122305 27 253 1.6 11.3 0.00 0.00 0.00 49 1020.7
20260902121803 26 130 0.0 0.0 0.00 0.00 0.00 50 1020.7
20260902121303 26 28 1.6 4.8 0.00 0.00 0.00 50 1020.7
20260902120304 25 38 1.6 4.8 0.00 0.00 0.00 55 1020.7
20260902115803 25 39 0.0 3.2 0.00 0.00 0.00 56 1020.7
20260902114804 25 34 3.2 8.0 0.00 0.00 0.00 54 1020.6
20260902114304 26 283 0.0 3.2 0.00 0.00 0.00 52 1020.6
20260902113804 26 275 0.0 0.0 0.00 0.00 0.00 52 1020.6
20260902113304 26 275 0.0 3.2 0.00 0.00 0.00 52 1020.8
20260902112803 26 337 0.0 4.8 0.00 0.00 0.00 53 1020.8
20260902111804 26 335 1.6 4.8 0.00 0.00 0.00 50 1021.1
20260902110804 27 69 0.0 3.2 0.00 0.00 0.00 52 1021.1
20260902110304 27 66 0.0 8.0 0.00 0.00 0.00 52 1021.1
20260902105803 27 64 0.0 0.0 0.00 0.00 0.00 52 1021.4
20260902105306 27 64 0.0 8.0 0.00 0.00 0.00 53 1021.4
20260902104303 26 205 0.0 0.0 0.00 0.00 0.00 55 1021.5
20260902103804 26 230 0.0 0.0 0.00 0.00 0.00 58 1021.6
20260902103304 25 230 0.0 0.0 0.00 0.00 0.00 56 1021.6
20260902102307 24 136 0.0 0.0 0.00 0.00 0.00 60 1021.8
20260902101804 25 171 0.0 0.0 0.00 0.00 0.00 61 1021.8
20260902101304 25 171 0.0 1.6 0.00 0.00 0.00 59 1021.8
20260902100804 25 169 1.6 8.0 0.00 0.00 0.00 61 1021.8
20260902100304 24 117 0.0 0.0 0.00 0.00 0.00 61 1021.8
20260902095306 23 175 0.0 0.0 0.00 0.00 0.00 63 1021.8
20260902094804 23 175 0.0 1.6 0.00 0.00 0.00 64 1022.0
20260902094304 23 327 0.0 0.0 0.00 0.00 0.00 67 1022.0
20260902093804 22 195 0.0 0.0 0.00 0.00 0.00 66 1022.0
20260902093303 22 73 0.0 0.0 0.00 0.00 0.00 68 1022.0
20260902092804 21 73 0.0 0.0 0.00 0.00 0.00 69 1022.0
20260902092305 21 73 0.0 0.0 0.00 0.00 0.00 69 1022.0
20260902091303 20 73 0.0 0.0 0.00 0.00 0.00 74 1022.0
20260902090304 18 73 0.0 0.0 0.00 0.00 0.00 78 1022.0
20260902084804 18 49 0.0 1.6 0.00 0.00 0.00 79 1022.0
20260902084303 18 127 0.0 0.0 0.00 0.00 0.00 78 1022.1
20260902083303 17 80 0.0 0.0 0.00 0.00 0.00 80 1022.1
20260902082804 17 94 0.0 0.0 0.00 0.00 0.00 80 1022.1
20260902082309 17 91 0.0 0.0 0.00 0.00 0.00 78 1022.1
20260902081804 18 163 0.0 0.0 0.00 0.00 0.00 78 1022.1
20260902081304 18 150 0.0 0.0 0.00 0.00 0.00 81 1022.1
20260902080803 17 153 0.0 0.0 0.00 0.00 0.00 81 1022.0
20260902080304 17 174 0.0 4.8 0.00 0.00 0.00 82 1022.0
20260902075803 16 163 0.0 0.0 0.00 0.00 0.00 83 1022.0
20260902074803 16 156 0.0 0.0 0.00 0.00 0.00 86 1022.0
20260902074304 16 153 0.0 0.0 0.00 0.00 0.00 86 1022.0
20260902073803 16 142 0.0 4.8 0.00 0.00 0.00 86 1022.0
20260902073304 16 56 0.0 3.2 0.00 0.00 0.00 85 1022.0
20260902072803 16 112 0.0 0.0 0.00 0.00 0.00 86 1022.0
20260902072309 15 132 0.0 0.0 0.00 0.00 0.00 86 1022.0
20260902071803 15 121 0.0 0.0 0.00 0.00 0.00 86 1022.0
20260902070804 15 92 0.0 0.0 0.00 0.00 0.00 88 1022.0
20260902070303 14 88 0.0 0.0 0.00 0.00 0.00 88 1022.0
20260902065804 14 88 0.0 0.0 0.00 0.00 0.00 89 1022.0
20260902065306 14 88 0.0 0.0 0.00 0.00 0.00 88 1022.0
20260902064803 14 88 0.0 0.0 0.00 0.00 0.00 89 1022.0
20260902064303 14 164 0.0 0.0 0.00 0.00 0.00 90 1022.0
20260902063804 13 103 0.0 0.0 0.00 0.00 0.00 91 1021.9
20260902063304 13 68 0.0 0.0 0.00 0.00 0.00 92 1021.9
20260902062804 13 68 0.0 0.0 0.00 0.00 0.00 93 1021.9
20260902062306 13 68 0.0 0.0 0.00 0.00 0.00 94 1022.1
20260902061804 13 65 0.0 0.0 0.00 0.00 0.00 94 1022.1
20260902061303 12 59 0.0 0.0 0.00 0.00 0.00 94 1021.9
20260902060304 12 186 0.0 0.0 0.00 0.00 0.00 95 1021.9
20260902055804 12 186 0.0 0.0 0.00 0.00 0.00 96 1021.9
20260902055306 12 186 0.0 0.0 0.00 0.00 0.00 97 1021.9
20260902054303 12 186 0.0 0.0 0.00 0.00 0.00 97 1021.9
20260902053304 12 186 0.0 0.0 0.00 0.00 0.00 98 1021.9
20260902052306 11 186 0.0 1.6 0.00 0.00 0.00 98 1021.9
20260902051803 11 186 0.0 0.0 0.00 0.00 0.00 99 1021.9
20260902051303 11 186 0.0 0.0 0.00 0.00 0.00 99 1021.9
20260902050304 11 194 0.0 1.6 0.00 0.00 0.00 100 1021.9
20260902045306 11 195 0.0 0.0 0.00 0.00 0.00 100 1021.8
20260902044304 11 195 0.0 0.0 0.00 0.00 0.00 100 1021.8
20260902043804 11 195 0.0 0.0 0.00 0.00 0.00 100 1021.8
20260902043303 11 195 0.0 0.0 0.00 0.00 0.00 100 1021.8
20260902042803 11 195 0.0 0.0 0.00 0.00 0.00 100 1021.9
20260902042308 11 195 0.0 0.0 0.00 0.00 0.00 100 1021.9
20260902041303 11 195 0.0 0.0 0.00 0.00 0.00 100 1021.9
20260902040303 11 195 0.0 0.0 0.00 0.00 0.00 100 1021.7
20260902035803 11 195 0.0 0.0 0.00 0.00 0.00 100 1021.9
20260902034804 11 195 0.0 0.0 0.00 0.00 0.00 100 1021.9
20260902034304 11 195 0.0 0.0 0.00 0.00 0.00 100 1021.9
20260902033804 11 195 0.0 0.0 0.00 0.00 0.00 100 1021.9
20260902033304 11 195 0.0 0.0 0.00 0.00 0.00 100 1021.9
20260902032306 11 195 0.0 0.0 0.00 0.00 0.00 100 1021.9
20260902030803 10 326 0.0 0.0 0.00 0.00 0.00 100 1021.9
20260902030303 11 326 0.0 0.0 0.00 0.00 0.00 99 1021.9
20260902025306 11 326 0.0 0.0 0.00 0.00 0.00 99 1021.9
20260902024804 11 326 0.0 0.0 0.00 0.00 0.00 99 1021.9
20260902024303 11 326 0.0 0.0 0.00 0.00 0.00 99 1021.9
20260902022804 11 326 0.0 0.0 0.00 0.00 0.00 98 1021.8
20260902022306 11 326 0.0 0.0 0.00 0.00 0.00 98 1021.8
20260902021804 11 326 0.0 0.0 0.00 0.00 0.00 98 1021.8
20260902021304 11 326 0.0 0.0 0.00 0.00 0.00 98 1021.8
20260902020804 11 326 0.0 0.0 0.00 0.00 0.00 98 1021.8
20260902020303 11 326 0.0 0.0 0.00 0.00 0.00 98 1021.9
20260902015804 12 326 0.0 0.0 0.00 0.00 0.00 98 1021.9
20260902015306 12 326 0.0 0.0 0.00 0.00 0.00 98 1021.9
20260902014803 12 326 0.0 0.0 0.00 0.00 0.00 98 1021.9
20260902014304 11 326 0.0 0.0 0.00 0.00 0.00 98 1021.9
20260902013803 12 326 0.0 0.0 0.00 0.00 0.00 98 1021.9
20260902013304 12 326 0.0 0.0 0.00 0.00 0.00 98 1022.0
20260902012308 11 326 0.0 0.0 0.00 0.00 0.00 98 1022.0
20260902010803 12 326 0.0 0.0 0.00 0.00 0.00 99 1022.0
20260902010303 12 326 0.0 0.0 0.00 0.00 0.00 99 1022.0
20260902005804 12 326 0.0 0.0 0.00 0.00 0.00 99 1022.0
20260902005306 11 326 0.0 0.0 0.00 0.00 0.00 99 1022.0
20260902004804 11 326 0.0 0.0 0.00 0.00 0.00 99 1022.1
20260902004303 11 326 0.0 0.0 0.00 0.00 0.00 99 1022.1
20260902003803 11 326 0.0 0.0 0.00 0.00 0.00 99 1022.1
20260902002804 11 326 0.0 0.0 0.00 0.00 0.00 99 1022.2
20260902002306 11 326 0.0 0.0 0.00 0.00 0.00 98 1022.3
20260902001804 11 326 0.0 0.0 0.00 0.00 0.00 99 1022.3
20260902001303 11 326 0.0 0.0 0.00 0.00 0.00 99 1022.3
20260902000804 11 326 0.0 0.0 0.00 0.00 0.00 99 1022.3
20260902000304 11 326 0.0 0.0 0.00 0.00 0.00 99 1022.3
20260901235803 11 326 0.0 0.0 0.00 0.00 0.00 98 1022.2
20260901235307 11 326 0.0 0.0 0.00 0.00 0.00 98 1022.2
20260901234805 11 326 0.0 0.0 0.00 0.00 0.00 98 1022.2
20260901233803 12 326 0.0 0.0 0.00 0.00 0.00 97 1022.2
20260901233303 12 326 0.0 0.0 0.00 0.00 0.00 97 1022.2
20260901232805 12 326 0.0 0.0 0.00 0.00 0.00 97 1022.2
20260901232306 12 326 0.0 0.0 0.00 0.00 0.00 97 1022.2
20260901231803 12 326 0.0 0.0 0.00 0.00 0.00 97 1022.3
20260901231304 12 326 0.0 0.0 0.00 0.00 0.00 97 1022.3
20260901225804 12 326 0.0 0.0 0.00 0.00 0.00 96 1022.3
20260901225306 12 326 0.0 0.0 0.00 0.00 0.00 96 1022.3
20260901224803 12 326 0.0 0.0 0.00 0.00 0.00 95 1022.4
20260901223804 12 326 0.0 0.0 0.00 0.00 0.00 95 1022.1
20260901223304 12 326 0.0 0.0 0.00 0.00 0.00 95 1022.1
20260901222803 12 326 0.0 0.0 0.00 0.00 0.00 95 1022.1
20260901222306 12 326 0.0 0.0 0.00 0.00 0.00 95 1022.1
20260901221804 12 326 0.0 0.0 0.00 0.00 0.00 95 1022.1
20260901221304 13 326 0.0 0.0 0.00 0.00 0.00 94 1022.1
20260901220810 13 326 0.0 0.0 0.00 0.00 0.00 94 1022.1
20260901220303 13 326 0.0 0.0 0.00 0.00 0.00 94 1022.1
20260901214804 13 326 0.0 0.0 0.00 0.00 0.00 93 1022.1
20260901214303 13 326 0.0 0.0 0.00 0.00 0.00 93 1022.1
20260901213804 13 326 0.0 0.0 0.00 0.00 0.00 93 1022.1
20260901213304 13 326 0.0 0.0 0.00 0.00 0.00 93 1022.1
20260901212804 13 326 0.0 0.0 0.00 0.00 0.00 92 1022.1
20260901211803 13 326 0.0 0.0 0.00 0.00 0.00 92 1022.1
20260901210804 13 326 0.0 0.0 0.00 0.00 0.00 92 1021.8
20260901205804 14 326 0.0 0.0 0.00 0.00 0.00 90 1021.8
20260901205306 14 326 0.0 0.0 0.00 0.00 0.00 91 1021.8
20260901204804 14 326 0.0 0.0 0.00 0.00 0.00 90 1021.8
20260901204304 14 326 0.0 0.0 0.00 0.00 0.00 90 1021.8
20260901203804 14 326 0.0 0.0 0.00 0.00 0.00 90 1021.8
20260901202805 14 326 0.0 0.0 0.00 0.00 0.00 90 1021.8
20260901201804 15 326 0.0 0.0 0.00 0.00 0.00 89 1021.8
20260901201304 15 326 0.0 0.0 0.00 0.00 0.00 89 1021.8
20260901200803 15 326 0.0 0.0 0.00 0.00 0.00 88 1021.8
20260901195804 15 326 0.0 0.0 0.00 0.00 0.00 87 1021.8
20260901195306 15 326 0.0 0.0 0.00 0.00 0.00 86 1021.7
20260901194804 15 326 0.0 0.0 0.00 0.00 0.00 86 1021.7
20260901193804 15 326 0.0 0.0 0.00 0.00 0.00 86 1021.7
20260901193304 16 326 0.0 0.0 0.00 0.00 0.00 85 1021.7
20260901192804 16 326 0.0 0.0 0.00 0.00 0.00 85 1021.7
20260901192306 16 326 0.0 0.0 0.00 0.00 0.00 84 1021.6
20260901191804 16 326 0.0 0.0 0.00 0.00 0.00 82 1021.6
20260901191304 16 326 0.0 0.0 0.00 0.00 0.00 81 1021.6
20260901190804 16 326 0.0 0.0 0.00 0.00 0.00 82 1021.6
20260901190303 16 326 0.0 0.0 0.00 0.00 0.00 82 1021.6
20260901185306 17 326 0.0 0.0 0.00 0.00 0.00 81 1021.5
20260901184804 17 326 0.0 0.0 0.00 0.00 0.00 78 1021.2
20260901183804 17 326 0.0 0.0 0.00 0.00 0.00 76 1021.2
20260901183304 18 326 0.0 0.0 0.00 0.00 0.00 77 1021.2
20260901182804 18 326 0.0 0.0 0.00 0.00 0.00 74 1021.2
20260901181804 19 326 0.0 0.0 0.00 0.00 0.00 71 1020.9
20260901181303 19 326 0.0 0.0 0.00 0.00 0.00 70 1020.9
20260901180804 19 326 0.0 0.0 0.00 0.00 0.00 69 1020.9
20260901180304 20 326 0.0 0.0 0.00 0.00 0.00 67 1020.8
20260901175803 20 326 0.0 0.0 0.00 0.00 0.00 66 1020.8
20260901175305 20 326 0.0 0.0 0.00 0.00 0.00 64 1020.8
20260901174804 21 326 0.0 0.0 0.00 0.00 0.00 63 1020.8
20260901173803 21 323 0.0 0.0 0.00 0.00 0.00 62 1020.8
20260901173303 21 323 0.0 0.0 0.00 0.00 0.00 61 1020.7
20260901172803 21 323 0.0 0.0 0.00 0.00 0.00 61 1020.7
20260901172305 22 323 0.0 0.0 0.00 0.00 0.00 59 1020.7
20260901171804 22 317 0.0 0.0 0.00 0.00 0.00 58 1020.7
20260901171304 22 0 0.0 0.0 0.00 0.00 0.00 59 1020.7
20260901170803 22 318 0.0 1.6 0.00 0.00 0.00 57 1020.7
20260901170303 22 263 0.0 0.0 0.00 0.00 0.00 56 1020.7